,,,PA_Meas_PMT16A,,PR_Meas_QMR101_102,,RH_Meas_QMH101,,SR_Meas_QMS101,,TA_Meas_QMH101,,GenWind,,GenWind,
date,time,status,PA,status,PR,status,RH,status,SR,status,TA,status,DirAvg,status,SpdAvg,
2011-11-18, 00:00:05,VALID,1000.41,VALID,0,VALID,93.295,VALID,0,VALID,23.1531,VALID,125,VALID,1.07891,
2011-11-18, 00:01:05,VALID,1000.39,VALID,0,VALID,93.3713,VALID,0,VALID,23.1336,VALID,124,VALID,1.36016,
2011-11-18, 00:02:05,VALID,1000.36,VALID,0,VALID,93.3942,VALID,0,VALID,23.1141,VALID,120,VALID,1.41914,
2011-11-18, 00:03:05,VALID,1000.36,VALID,0,VALID,93.4476,VALID,0,VALID,23.1336,VALID,125,VALID,1.13867,
2011-11-18, 00:04:05,VALID,1000.38,VALID,0,VALID,93.501,VALID,0,VALID,23.1159,VALID,129,VALID,1.63828,
2011-11-18, 00:05:05,VALID,1000.39,VALID,0,VALID,93.5163,VALID,0,VALID,23.0946,VALID,124,VALID,1.87109,
2011-11-18, 00:06:05,VALID,1000.41,VALID,0,VALID,93.5468,VALID,0,VALID,23.1159,VALID,123,VALID,1.37734,
2011-11-18, 00:07:05,VALID,1000.46,VALID,0,VALID,93.562,VALID,0,VALID,23.1159,VALID,131,VALID,1.79492,
2011-11-18, 00:08:05,VALID,1000.43,VALID,0,VALID,93.6002,VALID,0,VALID,23.1336,VALID,139,VALID,1.24453,
2011-11-18, 00:09:05,VALID,1000.44,VALID,0,VALID,93.5926,VALID,0,VALID,23.1354,VALID,150,VALID,1.64375,
2011-11-18, 00:10:05,VALID,1000.42,VALID,0,VALID,93.6078,VALID,0,VALID,23.1354,VALID,144,VALID,1.55352,
2011-11-18, 00:11:05,VALID,1000.39,VALID,0,VALID,93.5926,VALID,0,VALID,23.1354,VALID,146,VALID,1.58477,
2011-11-18, 00:12:05,VALID,1000.38,VALID,0,VALID,93.5849,VALID,0,VALID,23.1549,VALID,149,VALID,1.06836,
2011-11-18, 00:13:05,VALID,1000.34,VALID,0,VALID,93.5697,VALID,0,VALID,23.1549,VALID,127,VALID,0.934766,
2011-11-18, 00:14:05,VALID,1000.35,VALID,0,VALID,93.5697,VALID,0,VALID,23.1566,VALID,137,VALID,1.26953,
2011-11-18, 00:15:05,VALID,1000.32,VALID,0,VALID,93.562,VALID,0,VALID,23.1549,VALID,138,VALID,0.750781,
2011-11-18, 00:16:05,VALID,1000.32,VALID,0,VALID,93.5468,VALID,0,VALID,23.1762,VALID,138,VALID,0.253516,
2011-11-18, 00:17:05,VALID,1000.31,VALID,0,VALID,93.5544,VALID,0,VALID,23.1549,VALID,138,VALID,0.366406,
2011-11-18, 00:18:05,VALID,1000.32,VALID,0,VALID,93.5468,VALID,0,VALID,23.1566,VALID,138,VALID,0,
2011-11-18, 00:19:05,VALID,1000.3,VALID,0,VALID,93.562,VALID,0,VALID,23.1566,VALID,138,VALID,0,
2011-11-18, 00:20:05,VALID,1000.3,VALID,0,VALID,93.6154,VALID,0,VALID,23.1176,VALID,138,VALID,0,
2011-11-18, 00:21:05,VALID,1000.3,VALID,0,VALID,93.6154,VALID,0,VALID,23.0964,VALID,138,VALID,0.158203,
2011-11-18, 00:22:05,VALID,1000.28,VALID,0,VALID,93.6612,VALID,0,VALID,23.0769,VALID,138,VALID,0.330859,
2011-11-18, 00:23:05,VALID,1000.29,VALID,0,VALID,93.6841,VALID,0,VALID,23.1176,VALID,170,VALID,0.723437,
2011-11-18, 00:24:05,VALID,1000.3,VALID,0,VALID,93.7375,VALID,0,VALID,23.1336,VALID,172,VALID,0.581641,
2011-11-18, 00:25:05,VALID,1000.3,VALID,0,VALID,93.7528,VALID,0,VALID,23.1549,VALID,172,VALID,0.357422,
2011-11-18, 00:26:05,VALID,1000.28,VALID,0,VALID,93.7757,VALID,0,VALID,23.1744,VALID,172,VALID,0.61875,
2011-11-18, 00:27:05,VALID,1000.28,VALID,0,VALID,93.7757,VALID,0,VALID,23.1939,VALID,172,VALID,0.783594,
2011-11-18, 00:28:05,VALID,1000.25,VALID,0,VALID,93.7757,VALID,0,VALID,23.2329,VALID,172,VALID,0.367578,
2011-11-18, 00:29:05,VALID,1000.24,VALID,0,VALID,93.7909,VALID,0,VALID,23.2329,VALID,172,VALID,0.785156,
2011-11-18, 00:30:05,VALID,1000.22,VALID,0,VALID,93.8062,VALID,0,VALID,23.2524,VALID,172,VALID,0.419922,
2011-11-18, 00:31:05,VALID,1000.22,VALID,0,VALID,93.7985,VALID,0,VALID,23.2915,VALID,172,VALID,0.01875,
2011-11-18, 00:32:05,VALID,1000.19,VALID,0,VALID,93.8214,VALID,0,VALID,23.2719,VALID,172,VALID,0.0078125,
2011-11-18, 00:33:05,VALID,1000.18,VALID,0,VALID,93.7985,VALID,0,VALID,23.2524,VALID,172,VALID,0,
2011-11-18, 00:34:05,VALID,1000.16,VALID,0,VALID,93.7909,VALID,0,VALID,23.2524,VALID,172,VALID,0,
2011-11-18, 00:35:05,VALID,1000.15,VALID,0,VALID,93.8062,VALID,0,VALID,23.2507,VALID,172,VALID,0,
2011-11-18, 00:36:05,VALID,1000.14,VALID,0,VALID,93.8291,VALID,0,VALID,23.2719,VALID,172,VALID,0,
2011-11-18, 00:37:05,VALID,1000.14,VALID,0,VALID,93.8443,VALID,0,VALID,23.2719,VALID,172,VALID,0.45,
2011-11-18, 00:38:05,VALID,1000.08,VALID,0,VALID,93.852,VALID,0,VALID,23.2719,VALID,172,VALID,0.417969,
2011-11-18, 00:39:05,VALID,1000.07,VALID,0,VALID,93.852,VALID,0,VALID,23.2719,VALID,172,VALID,0.323438,
2011-11-18, 00:40:05,VALID,1000.04,VALID,0,VALID,93.8672,VALID,0,VALID,23.2719,VALID,172,VALID,0.260938,
2011-11-18, 00:41:05,VALID,999.998,VALID,0,VALID,93.8825,VALID,0,VALID,23.2329,VALID,172,VALID,0.560547,
2011-11-18, 00:42:05,VALID,999.982,VALID,0,VALID,93.8748,VALID,0,VALID,23.2524,VALID,172,VALID,0.360156,
2011-11-18, 00:43:05,VALID,999.981,VALID,0,VALID,93.8901,VALID,0,VALID,23.2329,VALID,172,VALID,0.417969,
2011-11-18, 00:44:05,VALID,999.924,VALID,0,VALID,93.8901,VALID,0,VALID,23.2329,VALID,172,VALID,0.202344,
2011-11-18, 00:45:05,VALID,999.911,VALID,0,VALID,93.8672,VALID,0,VALID,23.2134,VALID,172,VALID,0,
2011-11-18, 00:46:05,VALID,999.91,VALID,0,VALID,93.8443,VALID,0,VALID,23.1921,VALID,172,VALID,0.372656,
2011-11-18, 00:47:05,VALID,999.884,VALID,0,VALID,93.8672,VALID,0,VALID,23.2329,VALID,172,VALID,0.523828,
2011-11-18, 00:48:05,VALID,999.875,VALID,0,VALID,93.852,VALID,0,VALID,23.2329,VALID,172,VALID,0.697656,
2011-11-18, 00:49:05,VALID,999.843,VALID,0,VALID,93.8672,VALID,0,VALID,23.1921,VALID,172,VALID,0.461719,
2011-11-18, 00:50:05,VALID,999.837,VALID,0,VALID,93.8596,VALID,0,VALID,23.1939,VALID,172,VALID,0.267969,
2011-11-18, 00:51:05,VALID,999.84,VALID,0,VALID,93.8748,VALID,0,VALID,23.1921,VALID,172,VALID,0.310547,
2011-11-18, 00:52:05,VALID,999.844,VALID,0,VALID,93.8977,VALID,0,VALID,23.1939,VALID,172,VALID,0.271094,
2011-11-18, 00:53:05,VALID,999.858,VALID,0,VALID,93.8977,VALID,0,VALID,23.1744,VALID,172,VALID,0.181641,
2011-11-18, 00:54:05,VALID,999.88,VALID,0,VALID,93.8901,VALID,0,VALID,23.1531,VALID,172,VALID,0.366016,
2011-11-18, 00:55:05,VALID,999.867,VALID,0,VALID,93.9283,VALID,0,VALID,23.1531,VALID,172,VALID,0.273828,
2011-11-18, 00:56:05,VALID,999.85,VALID,0,VALID,93.9588,VALID,0,VALID,23.1531,VALID,172,VALID,0,
2011-11-18, 00:57:05,VALID,999.874,VALID,0,VALID,93.9664,VALID,0,VALID,23.1531,VALID,172,VALID,0,
2011-11-18, 00:58:05,VALID,999.849,VALID,0,VALID,93.9817,VALID,0.104696,VALID,23.1939,VALID,172,VALID,0,
2011-11-18, 00:59:05,VALID,999.829,VALID,0,VALID,93.9893,VALID,0,VALID,23.1531,VALID,172,VALID,0,
2011-11-18, 01:00:05,VALID,999.851,VALID,0,VALID,94.0045,VALID,0,VALID,23.1336,VALID,172,VALID,0,
2011-11-18, 01:01:05,VALID,999.836,VALID,0,VALID,94.0198,VALID,0,VALID,23.1531,VALID,172,VALID,0,
2011-11-18, 01:02:05,VALID,999.822,VALID,0,VALID,94.0274,VALID,0,VALID,23.1336,VALID,172,VALID,0,
2011-11-18, 01:03:05,VALID,999.839,VALID,0,VALID,94.0351,VALID,0,VALID,23.1354,VALID,172,VALID,0,
2011-11-18, 01:04:05,VALID,999.851,VALID,0,VALID,94.0656,VALID,0,VALID,23.1354,VALID,172,VALID,0,
2011-11-18, 01:05:05,VALID,999.84,VALID,0,VALID,94.058,VALID,0,VALID,23.1354,VALID,151,VALID,0.682031,
2011-11-18, 01:06:05,VALID,999.847,VALID,0,VALID,94.0656,VALID,0,VALID,23.1336,VALID,134,VALID,0.714063,
2011-11-18, 01:07:05,VALID,999.853,VALID,0,VALID,94.0808,VALID,0,VALID,23.1531,VALID,142,VALID,0.785937,
2011-11-18, 01:08:05,VALID,999.87,VALID,0,VALID,94.0732,VALID,0,VALID,23.1744,VALID,142,VALID,0.846094,
2011-11-18, 01:09:05,VALID,999.841,VALID,0,VALID,94.0274,VALID,0,VALID,23.1921,VALID,142,VALID,0.995703,
2011-11-18, 01:10:05,VALID,999.851,VALID,0,VALID,94.0122,VALID,0,VALID,23.2312,VALID,136,VALID,1.05508,
2011-11-18, 01:11:05,VALID,999.861,VALID,0,VALID,93.9664,VALID,0,VALID,23.2524,VALID,145,VALID,0.6,
2011-11-18, 01:12:05,VALID,999.854,VALID,0,VALID,93.9359,VALID,0,VALID,23.2312,VALID,145,VALID,0.949219,
2011-11-18, 01:13:05,VALID,999.854,VALID,0,VALID,93.8901,VALID,0,VALID,23.2719,VALID,134,VALID,0.855078,
2011-11-18, 01:14:05,VALID,999.86,VALID,0,VALID,93.8596,VALID,0,VALID,23.2719,VALID,132,VALID,0.753516,
2011-11-18, 01:15:05,VALID,999.858,VALID,0,VALID,93.8214,VALID,0,VALID,23.2719,VALID,132,VALID,0.758984,
2011-11-18, 01:16:05,VALID,999.816,VALID,0,VALID,93.8367,VALID,0,VALID,23.2312,VALID,132,VALID,0.694141,
2011-11-18, 01:17:05,VALID,999.832,VALID,0,VALID,93.7833,VALID,0,VALID,23.2524,VALID,125,VALID,0.751562,
2011-11-18, 01:18:05,VALID,999.791,VALID,0,VALID,93.7375,VALID,0,VALID,23.2117,VALID,125,VALID,0.559375,
2011-11-18, 01:19:05,VALID,999.81,VALID,0,VALID,93.7223,VALID,0,VALID,23.2117,VALID,125,VALID,0.778906,
2011-11-18, 01:20:05,VALID,999.769,VALID,0,VALID,93.707,VALID,0,VALID,23.2117,VALID,124,VALID,0.682813,
2011-11-18, 01:21:05,VALID,999.771,VALID,0,VALID,93.7146,VALID,0,VALID,23.2702,VALID,77,VALID,0.804688,
2011-11-18, 01:22:05,VALID,999.737,VALID,0,VALID,93.7451,VALID,0,VALID,23.2915,VALID,71,VALID,0.940625,
2011-11-18, 01:23:05,VALID,999.687,VALID,0,VALID,93.768,VALID,0,VALID,23.2915,VALID,71,VALID,1.01875,
2011-11-18, 01:24:05,VALID,999.672,VALID,0,VALID,93.7757,VALID,0,VALID,23.2737,VALID,71,VALID,0.747656,
2011-11-18, 01:25:05,VALID,999.602,VALID,0,VALID,93.8062,VALID,0,VALID,23.2915,VALID,73,VALID,0.820313,
2011-11-18, 01:26:05,VALID,999.595,VALID,0,VALID,93.8138,VALID,0,VALID,23.2932,VALID,82,VALID,0.632813,
2011-11-18, 01:27:05,VALID,999.526,VALID,0,VALID,93.8367,VALID,0,VALID,23.2737,VALID,112,VALID,0.721094,
2011-11-18, 01:28:05,VALID,999.472,VALID,0,VALID,93.8443,VALID,0,VALID,23.2524,VALID,143,VALID,0.887891,
2011-11-18, 01:29:05,VALID,999.456,VALID,0,VALID,93.8367,VALID,0,VALID,23.2542,VALID,156,VALID,1.1457,
2011-11-18, 01:30:05,VALID,999.444,VALID,0,VALID,93.8443,VALID,0,VALID,23.2737,VALID,159,VALID,1.05156,
2011-11-18, 01:31:05,VALID,999.417,VALID,0,VALID,93.8443,VALID,0,VALID,23.2737,VALID,170,VALID,1.05234,
2011-11-18, 01:32:05,VALID,999.397,VALID,0,VALID,93.8443,VALID,0,VALID,23.2719,VALID,169,VALID,0.970312,
2011-11-18, 01:33:05,VALID,999.376,VALID,0,VALID,93.8672,VALID,0,VALID,23.2915,VALID,154,VALID,0.902344,
2011-11-18, 01:34:05,VALID,999.338,VALID,0,VALID,93.8825,VALID,0,VALID,23.2932,VALID,154,VALID,0.916016,
2011-11-18, 01:35:05,VALID,999.357,VALID,0,VALID,93.852,VALID,0,VALID,23.2737,VALID,137,VALID,0.763281,
2011-11-18, 01:36:05,VALID,999.309,VALID,0,VALID,93.8443,VALID,0,VALID,23.2737,VALID,129,VALID,0.716797,
2011-11-18, 01:37:05,VALID,999.274,VALID,0,VALID,93.8291,VALID,0,VALID,23.2542,VALID,128,VALID,0.808203,
2011-11-18, 01:38:05,VALID,999.249,VALID,0,VALID,93.8138,VALID,0,VALID,23.2347,VALID,124,VALID,0.808984,
2011-11-18, 01:39:05,VALID,999.233,VALID,0,VALID,93.7757,VALID,0,VALID,23.2134,VALID,124,VALID,0.795313,
2011-11-18, 01:40:05,VALID,999.193,VALID,0,VALID,93.7604,VALID,0,VALID,23.1921,VALID,124,VALID,0.837891,
2011-11-18, 01:41:04,VALID,999.172,VALID,0,VALID,93.7375,VALID,0,VALID,23.2134,VALID,124,VALID,0.781641,
2011-11-18, 01:42:04,VALID,999.18,VALID,0,VALID,93.7375,VALID,0,VALID,23.2134,VALID,124,VALID,0.651953,
2011-11-18, 01:43:04,VALID,999.118,VALID,0,VALID,93.7375,VALID,0,VALID,23.2134,VALID,124,VALID,0.514453,
2011-11-18, 01:44:04,VALID,999.118,VALID,0,VALID,93.7375,VALID,0,VALID,23.1921,VALID,124,VALID,0.704297,
2011-11-18, 01:45:04,VALID,999.072,VALID,0,VALID,93.7604,VALID,0,VALID,23.1726,VALID,127,VALID,0.741406,
2011-11-18, 01:46:04,VALID,999.04,VALID,0,VALID,93.7833,VALID,0,VALID,23.2134,VALID,133,VALID,0.935547,
2011-11-18, 01:47:04,VALID,999.004,VALID,0,VALID,93.7757,VALID,0,VALID,23.2134,VALID,135,VALID,1.19297,
2011-11-18, 01:48:04,VALID,999.011,VALID,0,VALID,93.7757,VALID,0,VALID,23.2329,VALID,141,VALID,1.14961,
2011-11-18, 01:49:04,VALID,998.983,VALID,0,VALID,93.7985,VALID,0,VALID,23.2329,VALID,141,VALID,0.948047,
2011-11-18, 01:50:04,VALID,998.985,VALID,0,VALID,93.8138,VALID,0,VALID,23.2524,VALID,156,VALID,1.26445,
2011-11-18, 01:51:04,VALID,998.984,VALID,0,VALID,93.852,VALID,0,VALID,23.2719,VALID,156,VALID,0.680859,
2011-11-18, 01:52:04,VALID,998.981,VALID,0,VALID,93.8672,VALID,0,VALID,23.2719,VALID,156,VALID,0.824219,
2011-11-18, 01:53:04,VALID,998.986,VALID,0,VALID,93.8596,VALID,0,VALID,23.2507,VALID,156,VALID,0.765625,
2011-11-18, 01:54:04,VALID,998.97,VALID,0,VALID,93.8901,VALID,0,VALID,23.2524,VALID,150,VALID,0.595703,
2011-11-18, 01:55:04,VALID,998.973,VALID,0,VALID,93.913,VALID,0,VALID,23.2329,VALID,136,VALID,0.852734,
2011-11-18, 01:56:04,VALID,998.99,VALID,0,VALID,93.8977,VALID,0,VALID,23.2329,VALID,130,VALID,0.473828,
2011-11-18, 01:57:04,VALID,998.983,VALID,0,VALID,93.913,VALID,0,VALID,23.2347,VALID,129,VALID,0.724609,
2011-11-18, 01:58:04,VALID,998.996,VALID,0,VALID,93.913,VALID,0,VALID,23.2134,VALID,129,VALID,0.519922,
2011-11-18, 01:59:04,VALID,998.952,VALID,0,VALID,93.9359,VALID,0,VALID,23.2134,VALID,129,VALID,0.676172,
2011-11-18, 02:00:04,VALID,998.946,VALID,0,VALID,93.9511,VALID,0,VALID,23.2347,VALID,129,VALID,0.491406,
2011-11-18, 02:01:04,VALID,998.956,VALID,0,VALID,93.9588,VALID,0,VALID,23.2347,VALID,129,VALID,0.370703,
2011-11-18, 02:02:04,VALID,998.923,VALID,0,VALID,93.9817,VALID,0,VALID,23.2347,VALID,141,VALID,0.761719,
2011-11-18, 02:03:04,VALID,998.93,VALID,0,VALID,93.9893,VALID,0,VALID,23.2347,VALID,141,VALID,0.635938,
2011-11-18, 02:04:04,VALID,998.953,VALID,0,VALID,93.9969,VALID,0,VALID,23.2542,VALID,141,VALID,0.488672,
2011-11-18, 02:05:04,VALID,998.991,VALID,0,VALID,94.0122,VALID,0,VALID,23.2329,VALID,141,VALID,0.125,
2011-11-18, 02:06:04,VALID,998.997,VALID,0,VALID,94.0045,VALID,0,VALID,23.2347,VALID,110,VALID,0.512109,
2011-11-18, 02:07:04,VALID,999.062,VALID,0,VALID,94.0198,VALID,0,VALID,23.2347,VALID,5,VALID,0.980078,
2011-11-18, 02:08:04,VALID,999.071,VALID,0,VALID,94.0274,VALID,0,VALID,23.2134,VALID,3,VALID,1.04023,
2011-11-18, 02:09:04,VALID,999.113,VALID,0,VALID,94.0198,VALID,0,VALID,23.2329,VALID,3,VALID,1.35742,
2011-11-18, 02:10:04,VALID,999.081,VALID,0,VALID,94.0503,VALID,0,VALID,23.2329,VALID,3,VALID,1.33008,
2011-11-18, 02:11:04,VALID,999.079,VALID,0,VALID,94.0274,VALID,0,VALID,23.2117,VALID,359,VALID,1.12695,
2011-11-18, 02:12:04,VALID,999.067,VALID,0,VALID,94.058,VALID,0,VALID,23.2134,VALID,352,VALID,1.12422,
2011-11-18, 02:13:04,VALID,999.071,VALID,0,VALID,94.0274,VALID,0,VALID,23.1921,VALID,343,VALID,0.885547,
2011-11-18, 02:14:04,VALID,999.066,VALID,0,VALID,94.0351,VALID,0,VALID,23.2134,VALID,343,VALID,0.862891,
2011-11-18, 02:15:04,VALID,999.058,VALID,0,VALID,94.0351,VALID,0,VALID,23.2134,VALID,335,VALID,0.596484,
2011-11-18, 02:16:04,VALID,999.065,VALID,0,VALID,94.0274,VALID,0,VALID,23.1921,VALID,335,VALID,0.495703,
2011-11-18, 02:17:04,VALID,999.065,VALID,0,VALID,94.0503,VALID,0,VALID,23.2134,VALID,332,VALID,0.36875,
2011-11-18, 02:18:04,VALID,999.056,VALID,0,VALID,94.0503,VALID,0,VALID,23.1939,VALID,309,VALID,0.430469,
2011-11-18, 02:19:04,VALID,999.09,VALID,0,VALID,94.0503,VALID,0,VALID,23.1939,VALID,309,VALID,0.308203,
2011-11-18, 02:20:04,VALID,999.116,VALID,0,VALID,94.0503,VALID,0,VALID,23.1939,VALID,309,VALID,0.430469,
2011-11-18, 02:21:04,VALID,999.161,VALID,0,VALID,94.0427,VALID,0,VALID,23.1939,VALID,309,VALID,0.408984,
2011-11-18, 02:22:04,VALID,999.187,VALID,0,VALID,94.0808,VALID,0,VALID,23.1939,VALID,309,VALID,0.472656,
2011-11-18, 02:23:04,VALID,999.21,VALID,0,VALID,94.0656,VALID,0,VALID,23.1939,VALID,309,VALID,0.348047,
2011-11-18, 02:24:04,VALID,999.225,VALID,0,VALID,94.0732,VALID,0,VALID,23.1744,VALID,309,VALID,0.358984,
2011-11-18, 02:25:04,VALID,999.24,VALID,0,VALID,94.0656,VALID,0,VALID,23.1566,VALID,309,VALID,0.477344,
2011-11-18, 02:26:04,VALID,999.24,VALID,0,VALID,94.0885,VALID,0,VALID,23.1549,VALID,309,VALID,0.419531,
2011-11-18, 02:27:04,VALID,999.228,VALID,0,VALID,94.0961,VALID,0,VALID,23.1354,VALID,309,VALID,0.304297,
2011-11-18, 02:28:04,VALID,999.225,VALID,0,VALID,94.0885,VALID,0,VALID,23.1566,VALID,309,VALID,0,
2011-11-18, 02:29:04,VALID,999.226,VALID,0,VALID,94.1037,VALID,0,VALID,23.1371,VALID,309,VALID,0,
2011-11-18, 02:30:04,VALID,999.248,VALID,0,VALID,94.0961,VALID,0,VALID,23.1159,VALID,309,VALID,0,
2011-11-18, 02:31:04,VALID,999.241,VALID,0,VALID,94.1114,VALID,0,VALID,23.1176,VALID,309,VALID,0,
2011-11-18, 02:32:04,VALID,999.218,VALID,0,VALID,94.1114,VALID,0,VALID,23.1176,VALID,309,VALID,0,
2011-11-18, 02:33:04,VALID,999.24,VALID,0,VALID,94.119,VALID,0,VALID,23.0964,VALID,309,VALID,0,
2011-11-18, 02:34:04,VALID,999.258,VALID,0,VALID,94.1343,VALID,0,VALID,23.1176,VALID,309,VALID,0,
2011-11-18, 02:35:04,VALID,999.263,VALID,0,VALID,94.1343,VALID,0,VALID,23.0964,VALID,309,VALID,0.58125,
2011-11-18, 02:36:04,VALID,999.287,VALID,0,VALID,94.1495,VALID,0,VALID,23.1371,VALID,309,VALID,0.657812,
2011-11-18, 02:37:04,VALID,999.265,VALID,0,VALID,94.1419,VALID,0,VALID,23.1176,VALID,309,VALID,0.630859,
2011-11-18, 02:38:04,VALID,999.263,VALID,0,VALID,94.1495,VALID,0,VALID,23.0981,VALID,309,VALID,0.564453,
2011-11-18, 02:39:04,VALID,999.29,VALID,0,VALID,94.1419,VALID,0,VALID,23.1159,VALID,309,VALID,0.620313,
2011-11-18, 02:40:04,VALID,999.287,VALID,0,VALID,94.18,VALID,0,VALID,23.0964,VALID,309,VALID,0.589844,
2011-11-18, 02:41:04,VALID,999.302,VALID,0,VALID,94.1724,VALID,0,VALID,23.0964,VALID,339,VALID,0.608984,
2011-11-18, 02:42:04,VALID,999.294,VALID,0,VALID,94.1724,VALID,0,VALID,23.0769,VALID,356,VALID,0.619141,
2011-11-18, 02:43:04,VALID,999.293,VALID,0,VALID,94.1877,VALID,0,VALID,23.0964,VALID,356,VALID,0.608203,
2011-11-18, 02:44:04,VALID,999.317,VALID,0,VALID,94.1877,VALID,0,VALID,23.0964,VALID,356,VALID,0.588672,
2011-11-18, 02:45:04,VALID,999.33,VALID,0,VALID,94.1571,VALID,0,VALID,23.0769,VALID,356,VALID,0.594141,
2011-11-18, 02:46:04,VALID,999.337,VALID,0,VALID,94.18,VALID,0,VALID,23.0946,VALID,356,VALID,0.589844,
2011-11-18, 02:47:04,VALID,999.331,VALID,0,VALID,94.18,VALID,0,VALID,23.1159,VALID,356,VALID,0.528906,
2011-11-18, 02:48:04,VALID,999.355,VALID,0,VALID,94.1953,VALID,0,VALID,23.1159,VALID,356,VALID,0.292578,
2011-11-18, 02:49:04,VALID,999.338,VALID,0,VALID,94.2029,VALID,0.104696,VALID,23.1354,VALID,356,VALID,0.222656,
2011-11-18, 02:50:04,VALID,999.351,VALID,0,VALID,94.2105,VALID,0,VALID,23.1141,VALID,356,VALID,0.144531,
2011-11-18, 02:51:04,VALID,999.331,VALID,0,VALID,94.1877,VALID,0,VALID,23.1354,VALID,356,VALID,0,
2011-11-18, 02:52:04,VALID,999.338,VALID,0,VALID,94.1953,VALID,0,VALID,23.1354,VALID,356,VALID,0,
2011-11-18, 02:53:04,VALID,999.33,VALID,0,VALID,94.1877,VALID,0,VALID,23.0946,VALID,356,VALID,0,
2011-11-18, 02:54:04,VALID,999.322,VALID,0,VALID,94.2334,VALID,0,VALID,23.1159,VALID,356,VALID,0,
2011-11-18, 02:55:04,VALID,999.341,VALID,0,VALID,94.1953,VALID,0,VALID,23.0964,VALID,356,VALID,0,
2011-11-18, 02:56:04,VALID,999.373,VALID,0,VALID,94.2258,VALID,0.104696,VALID,23.0964,VALID,356,VALID,0,
2011-11-18, 02:57:04,VALID,999.377,VALID,0,VALID,94.2182,VALID,0,VALID,23.0751,VALID,356,VALID,0,
2011-11-18, 02:58:04,VALID,999.414,VALID,0,VALID,94.2258,VALID,0,VALID,23.0964,VALID,356,VALID,0.351563,
2011-11-18, 02:59:04,VALID,999.406,VALID,0,VALID,94.2182,VALID,0,VALID,23.0751,VALID,356,VALID,0.705469,
2011-11-18, 03:00:04,VALID,999.391,VALID,0,VALID,94.2334,VALID,0,VALID,23.1354,VALID,153,VALID,1.03555,
2011-11-18, 03:01:04,VALID,999.382,VALID,0,VALID,94.2334,VALID,0,VALID,23.1549,VALID,154,VALID,0.915625,
2011-11-18, 03:02:04,VALID,999.414,VALID,0,VALID,94.2487,VALID,0,VALID,23.1939,VALID,160,VALID,0.885547,
2011-11-18, 03:03:04,VALID,999.408,VALID,0,VALID,94.2258,VALID,0,VALID,23.2329,VALID,164,VALID,0.728516,
2011-11-18, 03:04:04,VALID,999.367,VALID,0,VALID,94.2487,VALID,0,VALID,23.2329,VALID,175,VALID,0.966406,
2011-11-18, 03:05:04,VALID,999.372,VALID,0,VALID,94.2411,VALID,0,VALID,23.2312,VALID,175,VALID,0.50625,
2011-11-18, 03:06:04,VALID,999.385,VALID,0,VALID,94.2411,VALID,0,VALID,23.2719,VALID,175,VALID,0.654688,
2011-11-18, 03:07:04,VALID,999.346,VALID,0,VALID,94.2563,VALID,0,VALID,23.2719,VALID,175,VALID,0.647656,
2011-11-18, 03:08:04,VALID,999.354,VALID,0,VALID,94.2411,VALID,0,VALID,23.2719,VALID,175,VALID,0.531641,
2011-11-18, 03:09:04,VALID,999.37,VALID,0,VALID,94.2182,VALID,0,VALID,23.2702,VALID,175,VALID,0.950781,
2011-11-18, 03:10:04,VALID,999.373,VALID,0,VALID,94.2334,VALID,0,VALID,23.2915,VALID,175,VALID,1.19297,
2011-11-18, 03:11:04,VALID,999.392,VALID,0,VALID,94.2182,VALID,0,VALID,23.311,VALID,173,VALID,1.18711,
2011-11-18, 03:12:04,VALID,999.392,VALID,0,VALID,94.2182,VALID,0,VALID,23.311,VALID,173,VALID,1.18203,
2011-11-18, 03:13:04,VALID,999.389,VALID,0,VALID,94.2182,VALID,0,VALID,23.311,VALID,173,VALID,1.4418,
2011-11-18, 03:14:04,VALID,999.397,VALID,0,VALID,94.2029,VALID,0,VALID,23.3305,VALID,173,VALID,1.30352,
2011-11-18, 03:15:04,VALID,999.403,VALID,0,VALID,94.1953,VALID,0,VALID,23.2915,VALID,173,VALID,1.61445,
2011-11-18, 03:16:04,VALID,999.398,VALID,0,VALID,94.1724,VALID,0,VALID,23.2702,VALID,173,VALID,1.58945,
2011-11-18, 03:17:04,VALID,999.406,VALID,0,VALID,94.1419,VALID,0,VALID,23.311,VALID,173,VALID,1.31055,
2011-11-18, 03:18:04,VALID,999.416,VALID,0,VALID,94.1343,VALID,0,VALID,23.3092,VALID,173,VALID,1.12812,
2011-11-18, 03:19:04,VALID,999.445,VALID,0,VALID,94.119,VALID,0,VALID,23.2915,VALID,173,VALID,1.06328,
2011-11-18, 03:20:04,VALID,999.453,VALID,0,VALID,94.0961,VALID,0,VALID,23.3092,VALID,173,VALID,1.08438,
2011-11-18, 03:21:04,VALID,999.478,VALID,0,VALID,94.0732,VALID,0,VALID,23.2915,VALID,173,VALID,1.31562,
2011-11-18, 03:22:04,VALID,999.453,VALID,0,VALID,94.058,VALID,0,VALID,23.2897,VALID,173,VALID,1.29258,
2011-11-18, 03:23:04,VALID,999.489,VALID,0,VALID,94.0351,VALID,0,VALID,23.311,VALID,173,VALID,0.969531,
2011-11-18, 03:24:04,VALID,999.48,VALID,0,VALID,94.0427,VALID,0,VALID,23.2702,VALID,173,VALID,0.902344,
2011-11-18, 03:25:04,VALID,999.459,VALID,0,VALID,94.0122,VALID,0,VALID,23.2915,VALID,173,VALID,0.803125,
2011-11-18, 03:26:04,VALID,999.468,VALID,0,VALID,94.0351,VALID,0.104696,VALID,23.2702,VALID,171,VALID,0.832031,
2011-11-18, 03:27:04,VALID,999.474,VALID,0,VALID,94.0045,VALID,0,VALID,23.2719,VALID,156,VALID,0.730469,
2011-11-18, 03:28:04,VALID,999.479,VALID,0,VALID,94.0045,VALID,0.104696,VALID,23.2507,VALID,156,VALID,0.783984,
2011-11-18, 03:29:04,VALID,999.464,VALID,0,VALID,93.9969,VALID,0.104696,VALID,23.2312,VALID,156,VALID,0.876562,
2011-11-18, 03:30:04,VALID,999.456,VALID,0,VALID,93.9969,VALID,0.104696,VALID,23.2312,VALID,156,VALID,1.11016,
2011-11-18, 03:31:04,VALID,999.471,VALID,0,VALID,93.9969,VALID,0,VALID,23.2524,VALID,156,VALID,0.951563,
2011-11-18, 03:32:04,VALID,999.507,VALID,0,VALID,94.0045,VALID,0,VALID,23.2312,VALID,156,VALID,0.694141,
2011-11-18, 03:33:04,VALID,999.52,VALID,0,VALID,94.0122,VALID,0,VALID,23.2312,VALID,156,VALID,0.912109,
2011-11-18, 03:34:04,VALID,999.513,VALID,0,VALID,94.0122,VALID,0.104696,VALID,23.2312,VALID,156,VALID,0.836328,
2011-11-18, 03:35:04,VALID,999.516,VALID,0,VALID,94.0274,VALID,0,VALID,23.2312,VALID,156,VALID,0.925781,
2011-11-18, 03:36:04,VALID,999.5,VALID,0,VALID,94.0427,VALID,0,VALID,23.2117,VALID,156,VALID,0.928516,
2011-11-18, 03:37:04,VALID,999.504,VALID,0,VALID,94.0427,VALID,0,VALID,23.2312,VALID,156,VALID,0.9125,
2011-11-18, 03:38:04,VALID,999.51,VALID,0,VALID,94.058,VALID,0.104696,VALID,23.2524,VALID,156,VALID,0.795703,
2011-11-18, 03:39:04,VALID,999.497,VALID,0,VALID,94.0503,VALID,0.104696,VALID,23.2312,VALID,156,VALID,0.626562,
2011-11-18, 03:40:04,VALID,999.5,VALID,0,VALID,94.0808,VALID,0,VALID,23.2117,VALID,156,VALID,0.580859,
2011-11-18, 03:41:04,VALID,999.487,VALID,0,VALID,94.0808,VALID,0.104696,VALID,23.2117,VALID,156,VALID,0.528125,
2011-11-18, 03:42:04,VALID,999.457,VALID,0,VALID,94.0732,VALID,0,VALID,23.2312,VALID,156,VALID,0.642187,
2011-11-18, 03:43:04,VALID,999.466,VALID,0,VALID,94.0885,VALID,0,VALID,23.2117,VALID,156,VALID,0.503516,
2011-11-18, 03:44:04,VALID,999.452,VALID,0,VALID,94.0808,VALID,0,VALID,23.2312,VALID,156,VALID,0.212109,
2011-11-18, 03:45:04,VALID,999.44,VALID,0,VALID,94.0732,VALID,0,VALID,23.2329,VALID,156,VALID,0.429297,
2011-11-18, 03:46:04,VALID,999.457,VALID,0,VALID,94.0961,VALID,0.104696,VALID,23.2117,VALID,156,VALID,0.342969,